Regional Weather Roundup
Issued by NWS

Home | Current Version | Previous Version | Text Only | Print | Product List | Glossary On
Versions: 1 2 3 4 5 6 7 8 9 10 11 12 13 14 15 16 17 18 19 20 21 22 23 24 25 26 27 28 29 30 31 32 33 34 35 36 37 38 39 40 41 42 43 44 45 46 47 48 49 50
000
ASUS45 KABQ 170210
RWRNM
WEATHER ROUNDUP FOR NEW MEXICO
NATIONAL WEATHER SERVICE ALBUQUERQUE NM
800 PM MDT TUE SEP 16 2014

NOTE: "FAIR" MEANS FEW OR NO CLOUDS BELOW 12,000 FEET AGL WITH NO
       SIGNIFICANT WEATHER OR OBSTRUCTIONS TO VISION.

      THIS PRODUCT IS RELEASED AS TWO VERSIONS.  ONE VERSION NEAR
      THE TOP OF THE HOUR CONTAINING PRELIMINARY DATA FROM ALBUQUERQUE
      AND OTHER STATIONS.  A FINAL VERSION WITH ADDITIONAL DATA IS
      ISSUED ABOUT 10 MINUTES AFTER THE HOUR.

NMZ501-503-504-510>518-170300-
NORTHWEST PLATEAU/NORTHCENTRAL MOUNTAINS

CITY           SKY/WX    TMP DP  RH WIND       PRES   REMARKS
FARMINGTON     CLEAR     76  45  33 S10       30.11S
LOS ALAMOS     MOCLDY    64  51  62 S14       30.29S
SANTA FE       CLOUDY    64  54  69 W12       30.25R
ANGEL FIRE     FAIR      50  45  82 CALM      30.38R

$$
NMZ402-403-502-505>509-170300-
WESTCENTRAL MOUNTAINS/SOUTHWEST MOUNTAINS

CITY           SKY/WX    TMP DP  RH WIND       PRES   REMARKS
GALLUP         CLOUDY    69  53  56 SW10      30.23R
GRANTS         CLOUDY    64  54  68 S8        30.28R
SILVER CITY    CLOUDY    64  61  88 NE7       30.20S

$$
NMZ407-409-411-412-170300-
SOUTHERN DESERTS

CITY           SKY/WX    TMP DP  RH WIND       PRES   REMARKS
LORDSBURG      FAIR      68  63  83 SE6       30.10R
DEMING         CLOUDY    67  64  90 NE10      30.11S
LAS CRUCES     CLOUDY    70  65  85 N5        30.12F
HOLLOMAN AFB   CLOUDY    67  64  90 N6        30.12S
ALAMOGORDO     CLOUDY    66  64  94 N6        30.14S
T OR C         CLOUDY    63  62  97 N9        30.17F

$$
NMZ519>523-170300-
CENTRAL VALLEYS/CENTRAL HIGHLANDS

CITY           SKY/WX    TMP DP  RH WIND       PRES   REMARKS
ALBUQUERQUE    CLOUDY    65  55  70 SE8       30.23R
DOUBLE EAGLE   CLEAR     63  55  77 S8        30.25R
MORIARTY ARPT  FAIR      60  55  81 S8        30.28R
CLINES CORNERS CLOUDY    59  53  80 SW10      30.29S
BELEN          LGT RAIN  63  60  91 S3        30.22S
SOCORRO        CLOUDY    67  61  79 CALM      30.20R

$$
NMZ524>526-539-540-170300-
SOUTHCENTRAL MOUNTAINS

CITY           SKY/WX    TMP DP  RH WIND       PRES   REMARKS
RUIDOSO        LGT RAIN  57  55  94 CALM      30.33S

$$
NMZ527>531-170300-
NORTHEAST HIGHLANDS/NORTHEAST PLAINS

CITY           SKY/WX    TMP DP  RH WIND       PRES   REMARKS
LAS VEGAS      CLOUDY    62  52  69 S14       30.26S
RATON          PTCLDY    65  51  60 S7        30.22R
CLAYTON        MOCLDY    66  57  72 S10       30.14R

$$
NMZ532>537-170300-
EASTCENTRAL PLAINS

CITY           SKY/WX    TMP DP  RH WIND       PRES   REMARKS
TUCUMCARI      MOCLDY    70  59  68 SW9       30.13S
CANNON AFB     CLOUDY    66  66 100 SW8       30.18S
CLOVIS AIRPORT   N/A     66  61  82 SW12      30.19F

$$
NMZ028-029-538-170300-
SOUTHEAST PLAINS

CITY           SKY/WX    TMP DP  RH WIND       PRES   REMARKS
ROSWELL        CLOUDY    68  65  90 CALM      30.14S
CARLSBAD       CLOUDY    73  73 100 N7        30.11R
HOBBS          MOCLDY    68  68 100 N9        30.16R


$$


USA.gov is the U.S. government's official web portal to all federal, state and local government web resources and services.